Hourly Data Report for May 10, 2019

MIRAMICHI RCS
NEW BRUNSWICK
Current Station Operator: ECCC - MSC

47°00'34.000" N
65°27'54.000" W
33.00 m
8100989
71744
ACQ

Download Data

Hourly Data (May 2019)
Hourly Data Report for May 10, 2019
TIME
LST
Temp Definition
°C
Dew Point Definition
°C
Rel Hum Definition
%
Precip. Amount Definition
mm

Wind Dir Definition
10's deg

Wind Spd Definition
km/h
Visibility Definition
km
Stn Press Definition
kPa
Hmdx Definition


Wind Chill Definition


Weather Definition


00:00 2.8 1.1 88 0.0   0   102.38     LegendNANA
01:00 2.0 0.7 91 0.0 24 2   102.38     LegendNANA
02:00 2.4 1.4 93 0.0 25 5   102.34     LegendNANA
03:00 2.8 1.5 92 0.0 14 2   102.31     LegendNANA
04:00 2.5 1.3 92 0.0 14 2   102.24     LegendNANA
05:00 2.5 1.4 92 0.0 8 5   102.20     LegendNANA
06:00 2.6 1.4 91 0.0 9 4   102.21     LegendNANA
07:00 3.6 1.9 89 0.0 20 6   102.20     LegendNANA
08:00 4.8 2.5 85 0.0 21 7   102.15     LegendNANA
09:00 6.3 2.5 76 0.0 20 10   102.14     LegendNANA
10:00 7.0 2.9 75 0.0 22 8   102.14     LegendNANA
11:00 7.1 4.2 82 0.2 20 16   102.06     LegendNANA
12:00 7.1 5.0 87 0.2 19 14   101.96     LegendNANA
13:00 7.3 5.0 85 0.3 18 17   101.84     LegendNANA
14:00 7.6 5.5 87 0.0 18 16   101.72     LegendNANA
15:00 7.3 5.2 87 0.3 18 19   101.63     LegendNANA
16:00 7.0 5.0 87 0.3 18 14   101.54     LegendNANA
17:00 6.7 5.2 90 0.2 16 16   101.46     LegendNANA
18:00 6.5 5.1 91 0.2 17 20   101.34     LegendNANA
19:00 6.2 5.0 92 0.6 18 18   101.30     LegendNANA
20:00 5.9 4.9 93 1.2 17 13   101.21     LegendNANA
21:00 5.2 4.2 93 3.1 17 14   101.16     LegendNANA
22:00 5.1 4.4 95 1.5 14 10   101.05     LegendNANA
23:00 5.2 4.5 95 1.2 16 9   100.91     LegendNANA

Notes on Data Quality.

Legend

  • E = Estimated
  • M = Missing
  • NA = Not Available*
  • [empty] = Indicates an unobserved value
Date modified: